Regional Weather Roundup
Issued by NWS Kansas City/Pleasant Hill, MO

Home | Current Version | Previous Version | Graphics & Text | Print | Product List | Glossary Off
Versions: 1 2 3 4 5 6 7 8 9 10 11 12 13 14 15 16 17 18 19 20 21 22 23 24 25 26 27 28 29 30 31 32 33 34 35 36 37 38 39 40 41 42 43 44 45 46 47 48 49 50

000
ASUS43 KEAX 261010
RWREAX

WEATHER ROUNDUP FOR EASTERN KANSAS AND NORTHWEST MISSOURI
NATIONAL WEATHER SERVICE KANSAS CITY/PLEASANT HILL MO
400 AM CST WED NOV 26 2014

KSZ040-057-103>105-MOZ028-029-037-043-261100-
...KANSAS CITY METROPOLITAN AREA...

CITY           SKY/WX    TMP DP  RH WIND       PRES   REMARKS
K.C. INTL      LGT RAIN  36  33  89 S14       29.93F WCI  27
K.C. DOWNTOWN  LGT RAIN  38  32  79 SW10      29.96F WCI  31
LEES SUMMIT    LGT SNOW  35  29  78 SW8       29.96R WCI  29
OLATHE - IXD   LGT RAIN  36  32  85 SW13      29.96R WCI  27
OLATHE - OJC   LGT SNOW  35  33  92 W12G23    29.95R FOG     WCI  27
LAWRENCE       LGT RAIN  39  33  79 W12       29.95S WCI  32

$$

MOZ001>008-011>017-020>025-030>033-038>040-044>046-053-054-261100-
...NORTHERN AND CENTRAL MISSOURI...

CITY           SKY/WX    TMP DP  RH WIND       PRES   REMARKS
ST. JOSEPH     CLOUDY    35  32  88 S10       29.91F WCI  27
MOSBY          LGT SNOW  34  32  93 S7        29.96F WCI  28
WARRENSBURG    CLOUDY    34  23  64 SW3       29.98S
WHITEMAN AFB   CLOUDY    35  22  59 S7        29.97F WCI  29
CLINTON        CLOUDY    37  27  65 S3        29.98F
SEDALIA        CLOUDY    35  22  58 SE6       29.99S WCI  30
WARSAW         NOT AVBL
MARSHALL       CLOUDY    36  25  64 SE6       29.99F WCI  31
CHILLICOTHE      N/A     34  23  64 S9        29.97F WCI  27
MOBERLY        MOCLDY    32  19  59 SE6       30.01F WCI  26
KIRKSVILLE     CLOUDY    29  22  75 SE9       29.99F WCI  20

$$

MOZ041-047>049-056>058-063>065-088>090-097-261100-
...EASTERN AND SOUTHERN MISSOURI...

CITY           SKY/WX    TMP DP  RH WIND       PRES   REMARKS
ST. LOUIS INTL CLOUDY    30  25  81 E5        30.09F WCI  25
SPIRIT OF STL  CLOUDY    26  23  88 CALM      30.08F
COLUMBIA       CLOUDY    29  20  69 SE7       30.01F WCI  22
JEFFERSON CITY CLOUDY    29  21  72 SE5       30.03F WCI  24
MEXICO         PTCLDY    28  25  86 SE6       30.02F WCI  22
ROLLA          CLEAR     30  18  60 SE12      30.00F WCI  20
LEBANON        MOCLDY    32  21  64 S9        29.99F WCI  24
OSAGE BEACH    CLOUDY    30  18  59 S9        29.99F WCI  22
SPRINGFIELD    MOCLDY    33  22  63 SE14      29.97F WCI  23
BRANSON        CLEAR     36  23  60 S7        30.01F WCI  30
NEVADA         CLOUDY    37  25  60 S12       29.96F WCI  30
JOPLIN         CLOUDY    39  23  52 S12       29.96F WCI  32
WEST PLAINS    PTCLDY    29  18  63 SE3       30.05F

$$

IAZ060-094-KSZ022-034>040-054-083-096-NEZ052-066-093-261100-
...KANSAS...SOUTHEAST NEBRASKA AND IOWA...

CITY           SKY/WX    TMP DP  RH WIND       PRES   REMARKS
TOPEKA         LGT RAIN  42  36  79 SW5       29.94F
MANHATTAN      CLOUDY    43  31  62 W7        29.95S
EMPORIA        LGT RAIN  40  29  64 W7        29.95S
CHANUTE        CLOUDY    40  25  55 SW7       29.96S
WICHITA        CLOUDY    42  28  57 NW10      29.99R
OMAHA          CLOUDY    39  35  86 NW9       29.85S WCI  33
LINCOLN        MOCLDY    37  30  75 W13       29.90S WCI  29
FALLS CITY     CLOUDY    40  34  79 W13       29.88S WCI  32
LAMONI         LGT SNOW  30  28  92 S14       29.89F VSB 3/4 WCI  19
DES MOINES     LGT SNOW  31  27  85 SE9       29.90F FOG     WCI  23

$$



USA.gov is the U.S. government's official web portal to all federal, state and local government web resources and services.